RH
18 41 34 26 26 25 22 22 20 18 19 20 29 36 31 27 28 34 33 34 44 44 29 25 29 30 26 31 30 22 63 98 100 100 98 100 98 99 98 100 100 97 94 98
29 31 26 31 30 27 23 23 21 16 17 20 28 36 36 30 29 31 32 33 35 41 39 22 24 30 25 30 29 28 33 81 86 86 98 98 100 100 100 100 100 98 99 99
21 22 19 27 32 30 28 25 22 19 21 22 26 36 36 29 27 32 30 29 33 35 40 33 20 24 26 29 30 29 28 40 64 75 91 95 100 100 100 99 100 100 100 99
39 21 25 26 27 29 30 27 27 24 31 29 36 39 39 31 24 26 28 30 30 32 37 43 27 22 24 24 28 29 30 27 24 35 54 96 98 98 98 100 100 100 99 99
40 28 20 32 31 36 31 35 31 28 30 35 36 43 38 34 28 23 21 28 29 29 34 40 36 22 23 20 24 25 28 30 27 25 31 58 90 100 99 100 100 100 98 99
38 37 35 26 21 28 37 38 36 35 45 51 47 45 40 35 28 25 22 25 26 26 28 36 39 20 20 17 20 23 25 29 31 31 28 26 34 63 96 96 98 99 98 99
41 26 40 40 45 42 41 47 46 56 60 49 39 45 38 35 28 29 31 28 30 29 28 33 36 18 18 18 19 22 26 27 30 32 35 34 30 27 40 71 94 96 99 99
45 44 35 46 46 41 40 46 47 46 55 45 46 48 38 31 26 28 30 37 36 26 28 30 35 30 17 20 24 24 26 28 29 32 36 38 39 37 31 28 35 44 66 84
33 38 22 29 32 43 48 57 45 48 54 56 46 41 38 35 32 33 36 34 35 29 24 29 31 34 32 22 24 26 28 28 29 31 34 36 40 42 44 40 36 35 40 47
44 44 39 37 38 46 49 44 51 54 51 50 46 50 39 33 33 30 30 29 34 29 32 30 31 32 36 32 35 33 38 47 50 42 35 35 38 41 46 49 49 49 44 41
50 48 49 49 46 44 54 52 46 44 44 45 46 41 36 34 34 36 32 32 36 34 33 30 31 34 36 39 41 39 40 44 47 50 53 50 43 40 40 44 50 54 55 59
62 48 42 42 44 48 49 52 52 53 49 53 52 46 39 37 36 33 32 30 30 35 32 29 30 34 37 40 41 43 45 46 48 52 53 56 58 58 60 54 51 50 52 62
85 83 75 60 57 46 44 53 55 52 50 51 62 50 44 42 41 40 38 33 35 38 34 33 30 29 29 34 36 31 32 37 45 48 47 53 56 64 60 59 61 64 67 75
70 75 93 88 96 89 77 72 68 73 77 58 53 49 44 41 42 41 39 35 31 33 36 33 32 32 34 30 30 33 32 30 28 29 25 29 37 48 57 62 68 74 78 73
49 69 57 55 60 55 58 52 58 60 64 75 68 59 52 46 43 41 39 37 34 32 34 40 36 36 35 33 32 32 33 33 34 20 24 23 24 26 39 54 56 68 84 79
92 73 68 63 42 37 39 40 41 47 62 61 61 63 62 50 47 46 44 39 38 36 34 41 41 40 38 34 33 33 34 33 34 24 24 30 30 19 23 30 36 42 58 68
88 89 83 88 64 60 59 36 31 36 40 29 53 49 50 50 45 44 44 45 41 37 35 34 34 36 40 39 34 34 34 35 35 35 33 34 35 37 32 32 32 39 55 62
60 80 92 87 81 76 39 27 26 34 28 22 36 32 31 31 38 42 42 42 42 43 42 38 36 36 39 41 36 36 35 34 37 37 36 36 38 41 43 44 40 43 48 58
59 68 81 96 92 60 43 27 26 34 26 22 21 21 41 46 54 53 50 44 42 40 44 43 37 35 38 42 40 39 39 32 34 38 36 34 43 46 48 53 57 46 57 59
71 78 69 98 90 81 48 40 37 34 32 42 61 70 69 59 66 61 48 45 42 42 44 45 39 34 32 30 30 34 37 32 31 32 34 38 47 54 61 58 66 62 50 58
90 92 86 97 95 68 57 54 52 63 56 52 50 70 72 73 88 84 52 43 45 42 43 46 43 35 31 29 28 30 35 32 32 31 33 42 54 58 63 57 66 58 53 67
76 94 97 100 99 83 57 60 63 56 46 47 50 62 69 69 86 92 73 50 49 49 44 43 45 40 36 34 30 29 36 37 33 36 39 47 62 65 56 56 78 72 54 48
78 68 64 72 62 58 58 66 50 36 47 46 45 51 80 77 75 88 85 67 53 53 50 44 44 47 47 42 38 36 33 37 35 38 44 57 55 46 53 62 70 61 62 57
63 60 66 62 64 48 45 57 62 61 64 46 40 45 61 73 82 73 87 77 70 64 58 48 42 44 45 46 40 41 40 38 38 33 34 39 49 53 57 67 65 48 53 99
56 62 62 62 56 55 53 65 58 49 48 63 61 56 62 62 76 92 97 89 86 84 87 69 55 46 43 42 42 40 36 35 37 43 49 55 52 48 46 46 53 69 89 99
64 60 57 57 65 70 65 63 62 69 60 53 58 60 68 73 77 89 87 92 81 76 72 80 75 66 73 71 62 62 66 64 67 66 61 59 61 55 50 57 64 71 89 100
Wind_Speed
35 36 39 38 32 29 23 17 17 14 14 19 18 18 15 17 15 11 9 10 8 10 11 6 4 4 4 7 8 10 4 22 22 23 22 25 25 20 27 33 39 47 39 39
37 43 37 32 27 27 29 25 25 23 21 22 19 20 18 21 20 15 12 14 13 12 13 8 6 4 3 5 7 8 5 15 21 22 23 22 25 21 30 32 42 41 41 43
37 33 37 35 32 28 32 32 28 25 21 20 20 25 19 19 23 19 15 16 17 14 13 11 9 6 4 3 4 6 6 2 10 16 26 23 24 24 31 32 44 44 43 50
22 31 20 21 34 31 32 31 29 25 20 12 11 11 18 21 22 20 15 15 12 11 11 12 11 8 7 4 0 3 4 4 3 3 6 20 23 24 31 34 37 45 49 52
21 20 35 28 15 20 26 24 22 21 21 19 17 14 12 6 16 18 17 17 13 10 8 10 11 11 11 7 5 2 4 4 4 4 2 7 20 19 28 39 31 42 46 42
27 19 17 21 30 24 13 15 8 13 13 8 17 11 17 14 13 18 14 12 16 15 11 10 13 14 14 11 9 7 5 5 4 4 5 5 7 15 32 34 27 25 33 36
26 31 25 17 17 24 21 10 3 3 5 8 12 13 30 19 20 16 16 11 12 18 14 12 14 15 16 11 10 9 6 5 5 5 4 5 7 8 12 18 26 25 24 29
21 15 32 24 23 24 31 30 10 7 5 3 12 9 15 6 9 10 4 4 10 16 16 12 18 15 16 14 12 11 9 8 6 6 7 7 7 8 10 12 15 16 19 20
20 17 21 19 28 24 17 22 27 9 5 3 6 10 10 16 24 13 9 10 13 13 17 18 17 20 17 15 13 11 11 12 12 11 10 10 10 10 11 13 15 16 19 20
10 4 10 9 15 29 23 14 10 11 5 10 6 8 11 5 19 13 14 14 16 13 15 19 19 21 18 17 16 15 12 12 14 16 17 15 14 14 15 16 18 19 21 24
16 9 10 12 10 16 22 23 17 12 17 7 9 9 12 6 2 3 11 7 11 10 13 13 19 21 22 19 17 17 17 16 17 17 16 17 17 19 20 20 21 21 24 25
8 8 17 18 13 6 12 12 21 15 12 9 11 18 19 10 11 21 15 12 15 9 11 11 10 16 22 23 21 19 21 22 22 23 25 24 17 18 22 24 21 25 27 29
2 2 3 3 8 15 17 11 17 19 21 22 11 8 8 14 13 9 15 17 11 14 12 16 14 14 15 22 24 17 18 22 26 24 25 27 27 30 28 28 27 30 26 34
3 2 2 3 2 2 3 7 9 8 8 14 23 20 22 24 22 20 22 28 20 16 17 15 17 16 16 19 19 19 17 19 17 20 19 20 21 22 24 26 31 37 31 29
9 7 8 11 11 12 14 12 12 18 21 17 17 21 20 20 21 20 22 23 24 20 20 17 19 18 18 21 19 17 16 16 12 12 13 13 15 16 19 23 28 33 39 33
12 7 9 12 14 17 19 18 15 19 15 18 14 19 21 24 18 16 18 22 24 21 22 25 22 21 24 25 23 21 17 21 17 14 11 9 7 12 17 19 22 24 29 27
9 7 6 5 8 11 16 21 20 20 20 23 20 20 19 20 29 25 19 15 22 23 22 26 28 29 30 26 27 25 23 22 25 19 15 16 16 16 13 15 20 22 25 27
16 9 6 4 4 6 11 13 15 20 21 20 26 30 27 30 31 33 35 31 27 25 23 29 27 29 33 30 26 25 27 28 27 28 22 21 19 17 17 19 18 22 25 28
23 17 9 6 9 17 27 16 11 15 17 22 27 25 24 24 22 24 32 35 36 28 27 26 30 30 32 36 34 35 32 28 29 30 28 25 25 22 25 25 24 22 26 29
24 19 22 7 3 4 2 6 4 12 21 9 17 20 22 26 23 18 24 36 37 32 26 29 28 27 29 31 34 33 33 31 28 28 30 31 29 26 29 29 28 25 28 31
19 18 25 21 7 13 13 13 5 2 8 17 18 19 21 23 22 18 16 23 23 32 31 30 31 27 25 23 28 37 37 35 33 31 31 33 33 31 31 33 34 31 30 33
13 14 14 13 10 12 5 4 4 13 16 18 19 19 23 24 23 19 21 21 17 17 26 33 34 31 27 31 27 27 39 35 33 34 35 34 34 30 34 35 36 34 35 36
15 19 15 15 12 7 6 9 22 26 27 21 28 22 26 25 23 23 22 32 26 21 18 23 27 40 35 26 26 22 27 32 35 38 34 31 31 32 34 37 36 37 38 40
16 13 23 23 24 26 24 21 24 26 31 31 36 33 24 32 29 29 27 28 17 18 21 24 23 23 31 33 32 35 36 30 30 28 26 27 30 38 36 35 36 36 30 29
14 14 21 27 28 28 24 30 31 29 30 28 28 30 26 30 30 21 21 24 12 15 12 15 19 19 24 24 21 21 24 24 24 24 26 32 33 33 32 30 28 27 23 24
20 22 24 30 28 28 30 28 29 26 23 26 29 27 26 25 28 27 20 8 8 15 20 21 17 22 15 16 20 21 21 24 23 23 24 24 24 25 25 23 22 21 20 24
Wind_Direction
224 220 224 234 236 237 243 243 249 251 253 251 259 267 251 266 271 265 280 295 285 289 300 297 305 293 330 336 358 4 235 201 207 203 221 205 221 220 193 195 198 194 187 191
222 227 235 240 241 240 242 241 246 256 266 269 266 270 265 265 261 256 267 284 282 268 283 277 271 268 287 338 10 18 17 204 200 204 206 206 202 204 211 204 198 201 196 193
231 235 235 237 239 235 241 245 249 256 272 275 276 278 272 258 258 257 265 277 277 275 269 272 261 254 251 298 18 34 41 138 197 220 211 206 215 216 214 214 202 205 210 195
240 231 236 234 239 242 245 253 253 258 266 273 271 290 268 265 266 254 262 269 269 268 261 266 262 241 237 238 3 67 60 68 118 175 208 206 222 222 210 208 213 206 204 200
231 230 225 223 217 228 245 254 256 255 264 271 264 276 286 276 268 259 259 255 269 271 262 258 254 236 231 222 214 170 116 93 76 91 123 195 212 210 207 201 236 222 218 227
246 241 231 240 243 239 260 232 234 254 256 251 244 235 281 272 282 289 278 271 260 265 264 241 242 234 238 229 216 203 176 153 137 112 116 135 159 193 199 211 214 224 215 216
228 234 237 232 213 214 198 204 256 246 208 239 249 220 249 272 297 287 272 262 259 245 226 226 239 241 239 233 217 216 214 196 173 155 157 146 146 164 185 198 217 206 208 220
206 229 227 224 223 215 223 223 201 226 219 240 222 214 249 254 287 315 218 274 299 237 221 225 234 232 235 235 225 217 217 225 226 212 194 198 185 173 176 191 201 206 217 221
206 227 227 224 233 210 196 203 221 251 269 302 231 246 246 261 278 261 257 284 304 252 235 227 227 230 226 217 220 222 223 230 237 240 232 223 221 213 204 202 204 205 212 214
211 179 187 202 208 219 221 205 189 206 232 247 228 240 235 266 291 284 269 261 290 264 252 232 222 223 218 214 223 227 222 228 238 243 245 245 243 241 232 224 222 217 219 219
210 197 173 159 192 212 209 219 219 222 230 246 260 246 259 259 207 4 341 258 315 251 229 233 233 220 221 220 221 222 221 232 245 255 251 248 251 256 252 249 244 241 234 231
195 226 238 235 199 191 194 224 230 243 227 232 252 251 252 258 248 281 303 301 299 268 229 212 207 218 224 226 231 237 242 247 253 261 261 258 242 244 255 254 257 261 262 255
73 113 163 210 216 227 229 222 232 249 256 249 249 252 273 259 268 259 285 287 304 301 250 223 218 220 232 234 230 228 237 244 253 252 255 257 253 248 250 249 243 243 250 258
241 235 168 186 211 261 234 229 243 277 269 268 256 272 265 263 260 256 266 283 284 282 279 246 230 241 255 225 225 231 240 239 250 243 248 253 255 251 246 243 244 241 241 252
217 228 247 271 289 298 297 305 294 295 296 270 282 269 273 275 276 276 271 273 271 252 258 253 248 247 259 227 229 239 241 239 244 233 227 244 251 250 245 240 236 240 241 245
210 233 235 253 267 273 278 282 290 294 292 286 316 301 284 270 269 270 267 266 269 258 253 243 256 262 258 242 245 242 250 244 238 234 242 257 270 262 257 255 254 252 242 242
224 201 229 260 239 244 263 270 276 264 278 295 292 310 306 298 262 249 248 259 261 255 249 247 250 250 251 251 251 245 245 251 243 239 241 252 268 276 273 256 252 247 243 244
224 195 226 239 246 237 255 253 260 260 274 293 283 295 290 294 303 266 251 254 261 264 258 257 259 252 246 245 242 247 249 248 250 242 243 252 255 267 264 274 269 251 240 238
224 229 228 226 217 271 277 254 265 261 294 288 286 283 282 292 309 274 253 249 246 245 259 252 265 251 247 244 248 245 246 247 250 243 245 252 258 260 266 271 272 270 248 243
216 227 217 203 215 247 170 164 275 296 285 302 331 303 291 297 305 298 263 251 247 243 248 246 262 244 241 244 246 241 239 242 248 241 240 247 255 251 253 265 266 268 256 248
182 206 213 232 234 265 249 255 282 337 316 335 334 321 327 312 306 304 283 256 254 245 237 241 249 253 245 251 240 239 233 237 241 238 242 246 250 247 248 259 262 264 258 255
190 192 207 221 238 264 280 212 166 306 300 316 325 312 299 304 299 293 286 267 253 255 253 247 242 249 251 256 255 248 232 238 241 254 240 243 247 247 256 255 258 262 266 266
230 221 219 219 231 237 273 257 290 282 283 290 302 311 299 309 301 288 281 278 262 265 263 248 245 247 246 262 255 262 245 244 248 240 241 247 247 256 262 262 261 267 267 267
236 237 232 245 258 263 275 283 282 280 284 280 289 302 299 297 302 299 266 260 258 267 274 264 257 241 235 241 242 243 244 237 235 240 244 253 269 270 263 260 263 265 265 258
245 237 246 259 269 271 268 270 278 282 283 285 292 290 291 285 293 302 273 233 291 292 296 267 219 212 226 230 228 233 235 233 235 241 249 255 256 256 260 265 266 263 265 259
247 255 263 276 284 277 271 272 277 277 290 285 290 291 291 278 285 277 294 303 336 320 294 276 242 226 219 230 235 239 241 244 246 248 248 250 259 266 266 264 264 262 259 258